| time (UTC) | temp F | wind direction | speed knots | gust knots | rain 1hr in | rain 24hr in | rain mn in | humidity % | barometer mb |
| 20260510210003 | 47 | 211 | 0.0 | 1.7 | 0.00 | 0.00 | 0.00 | 68 | 1011.4 |
| 20260510204504 | 48 | 336 | 0.0 | 3.5 | 0.00 | 0.00 | 0.00 | 67 | 1011.2 |
| 20260510203002 | 49 | 360 | 0.9 | 7.0 | 0.00 | 0.00 | 0.00 | 65 | 1011.0 |
| 20260510201501 | 49 | 290 | 0.0 | 4.3 | 0.00 | 0.00 | 0.00 | 67 | 1011.0 |
| 20260510200100 | 50 | 259 | 0.9 | 7.8 | 0.00 | 0.00 | 0.00 | 62 | 1010.9 |
| 20260510194606 | 50 | 264 | 3.5 | 9.6 | 0.00 | 0.00 | 0.00 | 59 | 1010.7 |
| 20260510193102 | 51 | 248 | 5.2 | 8.7 | 0.00 | 0.00 | 0.00 | 56 | 1010.6 |
| 20260510191602 | 51 | 270 | 3.5 | 13.9 | 0.00 | 0.00 | 0.00 | 55 | 1010.6 |
| 20260510190100 | 52 | 236 | 5.2 | 11.3 | 0.00 | 0.00 | 0.00 | 52 | 1010.4 |
| 20260510184604 | 53 | 209 | 3.5 | 8.7 | 0.00 | 0.00 | 0.00 | 51 | 1010.1 |
| 20260510183055 | 53 | 250 | 4.3 | 10.4 | 0.00 | 0.00 | 0.00 | 50 | 1009.9 |
| 20260510181607 | 54 | 245 | 7.0 | 17.4 | 0.00 | 0.00 | 0.00 | 48 | 1009.8 |
| 20260510180106 | 55 | 237 | 4.3 | 21.7 | 0.00 | 0.00 | 0.00 | 47 | 1009.5 |
| 20260510174553 | 55 | 307 | 6.1 | 17.4 | 0.00 | 0.00 | 0.00 | 45 | 1009.4 |
| 20260510173056 | 55 | 225 | 6.1 | 14.8 | 0.00 | 0.00 | 0.00 | 47 | 1009.5 |
| 20260510171556 | 56 | 262 | 7.8 | 20.0 | 0.00 | 0.00 | 0.00 | 47 | 1009.6 |
| 20260510170051 | 56 | 242 | 7.0 | 16.5 | 0.00 | 0.00 | 0.00 | 47 | 1009.5 |
| 20260510164559 | 56 | 244 | 13.0 | 20.9 | 0.00 | 0.00 | 0.00 | 45 | 1009.3 |
| 20260510163049 | 57 | 255 | 11.3 | 20.0 | 0.00 | 0.00 | 0.00 | 46 | 1009.3 |
| 20260510161548 | 56 | 247 | 13.9 | 21.7 | 0.00 | 0.00 | 0.00 | 46 | 1009.2 |
| 20260510160048 | 57 | 248 | 8.7 | 17.4 | 0.00 | 0.00 | 0.00 | 49 | 1009.2 |
| 20260510154553 | 57 | 242 | 10.4 | 22.6 | 0.00 | 0.00 | 0.00 | 47 | 1009.0 |
| 20260510153051 | 58 | 259 | 5.2 | 18.2 | 0.00 | 0.00 | 0.00 | 50 | 1009.0 |
| 20260510151546 | 57 | 252 | 5.2 | 16.5 | 0.00 | 0.00 | 0.00 | 48 | 1009.2 |
| 20260510150104 | 57 | 258 | 6.1 | 13.0 | 0.00 | 0.00 | 0.00 | 48 | 1009.1 |
| 20260510144542 | 57 | 304 | 7.0 | 13.0 | 0.00 | 0.00 | 0.00 | 46 | 1009.0 |
| 20260510143040 | 56 | 265 | 11.3 | 23.5 | 0.00 | 0.00 | 0.00 | 46 | 1009.3 |
| 20260510141540 | 57 | 263 | 10.4 | 20.9 | 0.00 | 0.00 | 0.00 | 45 | 1009.5 |
| 20260510140039 | 57 | 252 | 8.7 | 20.0 | 0.00 | 0.00 | 0.00 | 46 | 1009.5 |
| 20260510134539 | 57 | 255 | 13.9 | 22.6 | 0.00 | 0.00 | 0.00 | 46 | 1009.4 |
| 20260510133041 | 57 | 253 | 11.3 | 20.9 | 0.00 | 0.00 | 0.00 | 46 | 1009.4 |
| 20260510131538 | 58 | 259 | 9.6 | 20.0 | 0.00 | 0.00 | 0.00 | 45 | 1009.3 |
| 20260510130034 | 58 | 270 | 7.8 | 17.4 | 0.00 | 0.00 | 0.00 | 46 | 1009.4 |
| 20260510124533 | 58 | 271 | 9.6 | 18.2 | 0.00 | 0.00 | 0.00 | 45 | 1009.4 |
| 20260510123033 | 59 | 245 | 7.8 | 14.8 | 0.00 | 0.00 | 0.00 | 42 | 1009.6 |
| 20260510121531 | 58 | 237 | 7.8 | 17.4 | 0.00 | 0.00 | 0.00 | 45 | 1009.7 |
| 20260510120029 | 58 | 257 | 4.3 | 16.5 | 0.00 | 0.00 | 0.00 | 43 | 1009.9 |
| 20260510114529 | 58 | 255 | 9.6 | 18.2 | 0.00 | 0.00 | 0.00 | 42 | 1010.1 |
| 20260510113027 | 58 | 250 | 7.8 | 18.2 | 0.00 | 0.00 | 0.00 | 42 | 1010.1 |
| 20260510111526 | 58 | 301 | 8.7 | 23.5 | 0.00 | 0.00 | 0.00 | 42 | 1010.4 |
| 20260510110025 | 59 | 293 | 5.2 | 13.9 | 0.00 | 0.00 | 0.00 | 44 | 1010.7 |
| 20260510104522 | 57 | 240 | 7.8 | 16.5 | 0.00 | 0.00 | 0.00 | 43 | 1010.7 |
| 20260510103022 | 57 | 259 | 7.8 | 15.6 | 0.00 | 0.00 | 0.00 | 48 | 1010.6 |
| 20260510101521 | 57 | 250 | 6.1 | 19.1 | 0.00 | 0.00 | 0.00 | 48 | 1010.7 |
| 20260510100019 | 55 | 309 | 7.0 | 17.4 | 0.00 | 0.00 | 0.00 | 50 | 1010.8 |
| 20260510094534 | 55 | 301 | 7.0 | 16.5 | 0.00 | 0.00 | 0.00 | 49 | 1010.9 |
| 20260510093017 | 56 | 292 | 3.5 | 10.4 | 0.00 | 0.00 | 0.00 | 46 | 1010.8 |
| 20260510091515 | 55 | 293 | 4.3 | 9.6 | 0.00 | 0.00 | 0.00 | 48 | 1010.9 |
| 20260510090014 | 55 | 252 | 4.3 | 8.7 | 0.00 | 0.00 | 0.00 | 44 | 1010.8 |
| 20260510084518 | 55 | 245 | 3.5 | 8.7 | 0.00 | 0.00 | 0.00 | 43 | 1010.8 |
| 20260510083011 | 55 | 239 | 3.5 | 11.3 | 0.00 | 0.00 | 0.00 | 42 | 1010.8 |
| 20260510081508 | 54 | 333 | 1.7 | 5.2 | 0.00 | 0.00 | 0.00 | 44 | 1011.1 |
| 20260510080011 | 53 | 262 | 0.0 | 3.5 | 0.00 | 0.18 | 0.00 | 48 | 1011.0 |
| 20260510074504 | 53 | 307 | 1.7 | 4.3 | 0.00 | 0.18 | 0.00 | 50 | 1011.0 |
| 20260510073005 | 52 | 250 | 0.0 | 2.6 | 0.00 | 0.18 | 0.00 | 48 | 1010.8 |
| 20260510071601 | 52 | 214 | 0.0 | 1.7 | 0.00 | 0.18 | 0.00 | 53 | 1010.7 |
| 20260510070056 | 49 | 261 | 0.9 | 2.6 | 0.00 | 0.32 | 0.00 | 55 | 1010.7 |
| 20260510064603 | 48 | 157 | 0.0 | 1.7 | 0.00 | 0.32 | 0.00 | 57 | 1010.6 |
| 20260510063055 | 48 | 139 | 0.0 | 3.5 | 0.00 | 0.32 | 0.00 | 56 | 1010.6 |
| 20260510061558 | 47 | 200 | 0.0 | 2.6 | 0.00 | 0.32 | 0.00 | 57 | 1010.5 |
| 20260510060055 | 47 | 166 | 0.0 | 5.2 | 0.00 | 0.61 | 0.00 | 57 | 1010.3 |
| 20260510054552 | 47 | 172 | 0.0 | 4.3 | 0.00 | 0.61 | 0.00 | 57 | 1010.3 |
| 20260510053052 | 47 | 226 | 1.7 | 5.2 | 0.00 | 0.61 | 0.00 | 58 | 1010.3 |
| 20260510051601 | 46 | 158 | 0.9 | 4.3 | 0.00 | 0.61 | 0.00 | 59 | 1010.0 |
| 20260510050052 | 47 | 269 | 4.3 | 9.6 | 0.00 | 0.79 | 0.00 | 58 | 1010.0 |
| 20260510044558 | 47 | 257 | 6.1 | 13.0 | 0.00 | 0.79 | 0.00 | 58 | 1010.1 |
| 20260510043046 | 47 | 264 | 3.5 | 7.0 | 0.00 | 0.79 | 0.00 | 58 | 1010.3 |
| 20260510041545 | 47 | 210 | 1.7 | 7.0 | 0.00 | 0.79 | 0.00 | 57 | 1010.2 |
| 20260510040049 | 47 | 243 | 3.5 | 9.6 | 0.00 | 0.93 | 0.00 | 57 | 1010.3 |
| 20260510034543 | 47 | 243 | 2.6 | 7.8 | 0.00 | 0.93 | 0.00 | 57 | 1010.3 |
| 20260510033040 | 47 | 238 | 3.5 | 7.8 | 0.00 | 0.93 | 0.00 | 57 | 1010.3 |
| 20260510031538 | 47 | 259 | 1.7 | 6.1 | 0.00 | 0.93 | 0.00 | 56 | 1010.0 |
| 20260510030049 | 46 | 271 | 1.7 | 5.2 | 0.00 | 0.93 | 0.00 | 57 | 1010.2 |
| 20260510024533 | 46 | 210 | 0.9 | 4.3 | 0.00 | 0.93 | 0.00 | 57 | 1010.2 |
| 20260510023031 | 47 | 308 | 1.7 | 5.2 | 0.00 | 0.93 | 0.00 | 55 | 1010.2 |
| 20260510021531 | 47 | 259 | 2.6 | 7.0 | 0.00 | 0.93 | 0.00 | 56 | 1010.2 |
| 20260510020029 | 48 | 312 | 2.6 | 6.1 | 0.00 | 0.93 | 0.00 | 55 | 1010.1 |
| 20260510014527 | 47 | 261 | 1.7 | 6.1 | 0.00 | 0.93 | 0.00 | 56 | 1010.1 |
| 20260510013025 | 47 | 313 | 0.0 | 7.0 | 0.00 | 0.93 | 0.00 | 57 | 1010.1 |
| 20260510011524 | 48 | 231 | 1.7 | 7.8 | 0.00 | 0.93 | 0.00 | 54 | 1010.3 |
| 20260510010021 | 48 | 316 | 2.6 | 7.8 | 0.00 | 0.93 | 0.00 | 55 | 1010.5 |
| 20260510004519 | 48 | 160 | 0.9 | 4.3 | 0.00 | 0.93 | 0.00 | 55 | 1010.6 |
| 20260510003031 | 48 | 131 | 0.0 | 4.3 | 0.00 | 0.93 | 0.00 | 56 | 1010.6 |
| 20260510001521 | 48 | 231 | 0.9 | 9.6 | 0.00 | 0.93 | 0.00 | 54 | 1010.7 |
| 20260510000014 | 48 | 351 | 0.0 | 5.2 | 0.00 | 0.93 | 0.00 | 55 | 1010.9 |
| 20260509234523 | 49 | 334 | 0.0 | 6.1 | 0.00 | 0.93 | 0.00 | 54 | 1011.1 |
| 20260509233010 | 49 | 298 | 3.5 | 13.0 | 0.00 | 0.93 | 0.00 | 53 | 1011.0 |
| 20260509231513 | 49 | 28 | 0.9 | 10.4 | 0.00 | 0.93 | 0.00 | 52 | 1010.9 |
| 20260509230008 | 50 | 281 | 4.3 | 11.3 | 0.00 | 0.93 | 0.00 | 52 | 1011.1 |
| 20260509224506 | 50 | 232 | 5.2 | 13.0 | 0.00 | 0.93 | 0.00 | 51 | 1011.0 |
| 20260509223004 | 50 | 291 | 5.2 | 14.8 | 0.00 | 0.93 | 0.00 | 50 | 1010.9 |
| 20260509221501 | 49 | 235 | 2.6 | 13.0 | 0.00 | 0.93 | 0.00 | 53 | 1011.1 |
| 20260509220107 | 49 | 221 | 3.5 | 9.6 | 0.00 | 0.93 | 0.93 | 54 | 1011.1 |
| 20260509214602 | 48 | 248 | 0.0 | 8.7 | 0.00 | 0.93 | 0.93 | 58 | 1011.1 |
| 20260509213127 | 48 | 346 | 1.7 | 6.1 | 0.00 | 0.93 | 0.93 | 61 | 1010.9 |
| 20260509211556 | 48 | 266 | 0.9 | 6.1 | 0.00 | 0.93 | 0.93 | 61 | 1011.0 |